TimeCST,TemperatureF,Dew PointF,Humidity,Sea Level PressureIn,VisibilityMPH,Wind Direction,Wind SpeedMPH,Gust SpeedMPH,PrecipitationIn,Events,Conditions,WindDirDegrees,DateUTC
12:52 AM,25.0,21.0,85,29.87,10.0,WNW,3.5,-,N/A,,Clear,290,2013-02-13 06:52:00
1:52 AM,24.1,19.9,84,29.85,10.0,West,5.8,-,N/A,,Clear,270,2013-02-13 07:52:00
2:52 AM,24.1,19.9,84,29.84,10.0,Calm,Calm,-,N/A,,Scattered Clouds,0,2013-02-13 08:52:00
3:52 AM,24.1,19.9,84,29.83,10.0,West,4.6,-,N/A,,Overcast,270,2013-02-13 09:52:00
4:52 AM,24.1,21.0,88,29.82,10.0,WNW,3.5,-,N/A,,Scattered Clouds,300,2013-02-13 10:52:00
5:52 AM,24.1,21.0,88,29.81,10.0,WSW,3.5,-,N/A,,Overcast,250,2013-02-13 11:52:00
6:52 AM,24.1,21.0,88,29.81,10.0,West,3.5,-,N/A,,Mostly Cloudy,260,2013-02-13 12:52:00
7:52 AM,26.1,21.9,84,29.80,10.0,West,3.5,-,N/A,,Partly Cloudy,270,2013-02-13 13:52:00
8:52 AM,28.0,24.1,85,29.80,10.0,SSW,6.9,-,N/A,,Partly Cloudy,210,2013-02-13 14:52:00
9:52 AM,30.9,26.1,82,29.79,10.0,SW,10.4,-,N/A,,Clear,230,2013-02-13 15:52:00
10:52 AM,35.1,28.9,78,29.76,10.0,SW,8.1,-,N/A,,Clear,230,2013-02-13 16:52:00
11:52 AM,37.0,30.0,76,29.75,10.0,SW,12.7,-,N/A,,Clear,230,2013-02-13 17:52:00
12:52 PM,39.9,32.0,73,29.73,10.0,SW,16.1,-,N/A,,Clear,230,2013-02-13 18:52:00
1:52 PM,43.0,34.0,71,29.70,10.0,WSW,16.1,-,N/A,,Clear,240,2013-02-13 19:52:00
2:52 PM,43.0,34.0,71,29.68,10.0,SW,12.7,-,N/A,,Partly Cloudy,230,2013-02-13 20:52:00
3:52 PM,41.0,33.1,73,29.67,10.0,WSW,11.5,-,N/A,,Overcast,240,2013-02-13 21:52:00
4:52 PM,39.0,32.0,76,29.65,10.0,SW,6.9,-,N/A,,Overcast,220,2013-02-13 22:52:00
5:52 PM,39.0,32.0,76,29.66,10.0,WSW,10.4,-,N/A,,Overcast,250,2013-02-13 23:52:00
6:52 PM,37.9,32.0,79,29.64,10.0,WSW,12.7,-,0.00,,Overcast,250,2013-02-14 00:52:00
7:52 PM,37.0,30.9,79,29.64,10.0,West,11.5,-,N/A,,Overcast,260,2013-02-14 01:52:00
8:52 PM,37.9,30.0,73,29.64,10.0,West,18.4,24.2,N/A,,Mostly Cloudy,270,2013-02-14 02:52:00
9:52 PM,36.0,30.0,79,29.65,10.0,WNW,17.3,-,N/A,,Clear,290,2013-02-14 03:52:00
10:09 PM,35.6,30.2,81,29.61,10.0,WNW,15.0,-,N/A,,Mostly Cloudy,290,2013-02-14 04:09:00
10:52 PM,36.0,30.9,82,29.65,10.0,West,17.3,-,N/A,,Overcast,280,2013-02-14 04:52:00
11:52 PM,36.0,30.0,79,29.66,10.0,WNW,18.4,28.8,N/A,,Overcast,290,2013-02-14 05:52:00